7 * 24
多渠道服务支持
IRIDIUM 102 是 Iridium 卫星通信公司运营的一颗低轨通信卫星,属于 Iridium NEXT 卫星星座的一部分。该星座由 66 颗工作卫星组成,提供全球范围的语音和数据通信服务。IRIDIUM 102 于 2017 年发射,运行在极地轨道上,支持航空、航海、政府和应急通信等应用。卫星采用先进设计,具备抗干扰能力和高带宽,为偏远地区和移动用户提供可靠的连接。
美国
(US)
| 数据来源 | 国际轨道数据 |
| 星历时间: | 2025-12-13T07:38:06+0800 10小时前 查看轨道信息 |
| 半长轴: | 7155.804km |
| 偏心率: | 0.0001991 |
| 轨道倾角: | 86.399° |
| 近地点辐角 | 87.532° |
| 升交点赤经 | 166.236° |
| 平近点角 | 272.610° |
| 近地点: | 776.244km |
| 远地点: | 779.094km |
| 周期: | 100.403分钟 |
| 每日圈数: | 14.342179 |